LQSALYBE

Guest
Details From LQSA - Sarajevo
To LYBE - Belgrade
Flight Number -
Tags generated
Created
Modified
Stats Distance 104 nm / 193 km
Max Altitude 2,900 ft / 884 m
Waypoints 3
Social Downloads 2
Likes 0
Share VATSIM

Download

Looking for another format? Having issues loading an existing format? Contact us
Advertisement - Login to hide

Notes

Basic altitude profile: - Ascent Rate: 2500ft/min - Ascent Speed: 210kts - Cruise Altitude: 10000ft - Cruise Speed: 250kts - Descent Rate: 1500ft/min - Descent Speed: 210kts Options: - Use NATs: yes - Use PACOTS: yes - Use low airways: yes - Use high airways: yes

Route

LQSA KEB LYBE

ID Type Via Altitude Latitude Longitude Leg Dist Tot Dist Heading (true) Name
O LQSA APT - 0 ft / 0 m 43.82460˚ 18.33150˚ - 0 nm - Sarajevo
KEB VOR - 2,900 ft / 884 m 43.93386˚ 18.44983˚ 8 nm 8 nm 38° / 38° SARAJEVO VOR-DME
O LYBE APT - 0 ft / 0 m 44.81843˚ 20.30921˚ 95 nm 104 nm 56° / 57° Belgrade

Altitude Profile

Advertisement - Login to hide

LQSA

Details ICAO LQSA (SJJ)
Name Sarajevo
Region Bosnia and Herzegovinia
Timezone Europe/Sarajevo (UTC+1.0)
Stats Elevation 1,708 ft / 521 m (AMSL)
Location 43.824597° 18.331500°
Runways 1
Magnetic Variation 4.223° E

METAR

LQSA 180700Z 31004KT 1500 SN SCT003 BKN010 OVC030 M01/M02 Q1019 NOSIG

Decode

TAF

Not found

Departure Runways

ID Width Length Bearing (true) Bearing (mag) Surface Threshold Offset Overrun Length
12 150 ft / 46 m 8,519 ft / 2,597 m 117.41° 113.19° Asphalt 333 ft / 102 m 0 ft / 0 m
30 150 ft / 46 m 8,519 ft / 2,597 m 297.43° 293.21° Asphalt 666 ft / 203 m 0 ft / 0 m

LYBE

Details ICAO LYBE (BEG)
Name Belgrade
Region Serbia and Montenegro
Timezone Europe/Belgrade (UTC+1.0)
Stats Elevation 335 ft / 102 m (AMSL)
Location 44.818429° 20.309211°
Runways 1
Magnetic Variation 4.673° E

METAR

LYBE 180700Z 29005KT 3000 BR NSC M02/M02 Q1021 TEMPO 1500

Decode

TAF

TAF LYBE 180500Z 1806/1906 29006KT 5000 BR SCT040 TX03/1813Z TNM03/1905Z TEMPO 1806/1808 2000 BKN008 BECMG 1808/1810 7000 NSW TEMPO 1903/1906 3000 BR

Decode

Destination Runways

ID Width Length Bearing (true) Bearing (mag) Surface Threshold Offset Overrun Length
12 148 ft / 45 m 11,138 ft / 3,395 m 122.00° 117.33° Asphalt 1,000 ft / 305 m 0 ft / 0 m
30 148 ft / 45 m 11,138 ft / 3,395 m 302.03° 297.36° Asphalt 1,312 ft / 400 m 0 ft / 0 m

Approach Navaids

Runway Type Ident Frequency Range Bearing (true) Bearing (mag) Slope Elevation
12 Localiser YUB 110.30 MHz 25 nm / 46 km 121.92° 117.25° - 315 ft / 96 m (AMSL)
12 Glidescope YUB 110.30 MHz 25 nm / 46 km 121.92° 117.25° 3.00° 305 ft / 93 m (AMSL)
30 Localiser YBE 109.90 MHz 25 nm / 46 km 301.94° 297.27° - 298 ft / 91 m (AMSL)
30 Glidescope YBE 109.90 MHz 25 nm / 46 km 301.94° 297.27° 3.00° 328 ft / 100 m (AMSL)

Popular Alternatives